Snowfall_Accumulation
1.5 1.5 1.9 3.0 3.6 3.6 4.6 4.4 3.3 3.2 0.0 0.0 0.0 0.0 0.0 0.0 0.0 0.0 0.0 0.0 0.0 0.0
1.3 1.2 1.3 1.6 1.8 3.3 4.0 3.9 3.2 4.2 2.8 3.0 3.4 0.0 0.0 0.0 0.0 0.0 0.0 0.0 0.0 0.0
1.8 1.6 1.5 1.0 1.0 1.2 2.0 3.6 3.6 3.0 3.0 2.8 4.3 4.3 4.0 4.1 4.0 2.1 0.0 0.0 0.0 0.0
1.9 1.8 1.2 1.1 0.8 0.6 0.8 1.0 1.8 2.4 3.1 2.0 2.6 3.2 3.6 3.6 3.5 3.6 3.4 3.1 3.0 2.6
1.8 1.8 1.8 1.8 1.3 0.7 0.5 0.4 0.7 1.1 2.0 2.4 2.8 2.5 2.4 2.9 3.2 3.1 2.7 2.7 2.9 3.0
1.0 1.4 1.8 2.1 2.4 2.0 1.4 0.8 0.1 0.4 0.3 1.3 1.9 2.2 2.3 1.8 1.5 2.5 2.5 2.2 2.2 2.4
0.8 1.0 1.5 1.6 1.8 2.1 2.3 2.0 2.0 1.1 0.6 0.8 0.7 1.2 1.6 1.7 1.8 1.6 1.4 1.2 1.9 1.6
0.3 0.4 0.5 0.6 0.7 0.8 1.4 1.9 2.1 2.2 2.2 2.0 1.8 1.6 1.3 1.3 1.0 1.0 1.4 1.5 1.6 1.3
0.2 0.2 0.2 0.3 0.3 0.4 0.4 0.7 1.0 1.5 1.6 1.7 1.9 2.4 3.1 2.9 2.3 2.1 1.0 0.6 0.4 0.4
0.0 0.0 0.1 0.2 0.2 0.3 0.4 0.3 0.2 0.4 0.7 0.9 1.0 1.6 2.2 3.5 2.3 1.5 1.5 1.5 1.4 1.1
0.0 0.0 0.0 0.0 0.0 0.1 0.2 0.2 0.3 0.3 0.3 0.2 0.0 0.6 1.3 2.1 2.3 1.3 1.2 1.0 0.8 0.9
0.0 0.0 0.0 0.0 0.0 0.0 0.0 0.0 0.1 0.1 0.2 0.2 0.1 0.1 0.8 1.5 1.1 0.6 0.1 0.2 0.8 1.0
0.0 0.0 0.0 0.0 0.0 0.0 0.0 0.0 0.0 0.0 0.0 0.1 0.2 0.1 0.2 1.1 1.4 0.9 0.4 0.0 0.0 0.1
0.0 0.0 0.0 0.0 0.0 0.0 0.0 0.0 0.0 0.0 0.0 0.0 0.0 0.0 0.0 0.3 1.0 1.2 0.6 0.3 0.1 0.1